This is the latest recevied weather packets stored in our database for station/object KD2VWU. If no packets are shown the sender has not sent any weather packets the latest 10 day(s).
| Time | Temp. | Humidity | Pressure | Rain* | Wind** | Luminosity | Snow |
|---|---|---|---|---|---|---|---|
| 1777651034 | 14.44° C | 46% | 1009.6 hPa | 0 mm | - | - | - |
| 1777650732 | 14.44° C | 47% | 1009.4 hPa | 0 mm | - | - | - |
| 1777650428 | 14.44° C | 50% | 1009.5 hPa | 0 mm | - | - | - |
| 1777650125 | 14.44° C | 52% | 1009.4 hPa | 0 mm | - | - | - |
| 1777649823 | 13.89° C | 47% | 1009.4 hPa | 0 mm | - | - | - |
| 1777649520 | 13.33° C | 57% | 1009.6 hPa | 0 mm | - | - | - |
| 1777649216 | 13.89° C | 52% | 1009.7 hPa | 0 mm | - | - | - |
| 1777648913 | 13.33° C | 52% | 1009.6 hPa | 0 mm | - | - | - |
| 1777648610 | 13.33° C | 55% | 1009.6 hPa | 0 mm | - | - | - |
| 1777648307 | 12.78° C | 52% | 1009.8 hPa | 0 mm | - | - | - |
| 1777648003 | 13.33° C | 51% | 1009.7 hPa | 0 mm | - | - | - |
| 1777647699 | 12.78° C | 50% | 1009.7 hPa | 0 mm | - | - | - |
| 1777647395 | 12.22° C | 50% | 1009.6 hPa | 0 mm | - | - | - |
| 1777646789 | 11.67° C | 55% | 1009.7 hPa | 0 mm | - | - | - |
| 1777646484 | 11.67° C | 52% | 1009.7 hPa | 0 mm | - | - | - |
| 1777646180 | 11.67° C | 58% | 1009.5 hPa | 0 mm | - | - | - |
| 1777645878 | 11.11° C | 57% | 1009.6 hPa | 0 mm | - | - | - |
| 1777645575 | 11.11° C | 57% | 1009.9 hPa | 0 mm | - | - | - |
| 1777645271 | 11.11° C | 59% | 1009.8 hPa | 0 mm | - | - | - |
| 1777644967 | 10.56° C | 61% | 1009.6 hPa | 0 mm | - | - | - |
| 1777644665 | 10.56° C | 59% | 1009.5 hPa | 0 mm | - | - | - |
| 1777644361 | 10.56° C | 62% | 1009.5 hPa | 0 mm | - | - | - |
| 1777644057 | 10.56° C | 65% | 1009.7 hPa | 0 mm | - | - | - |
| 1777643754 | 10° C | 62% | 1009.7 hPa | 0 mm | - | - | - |
| 1777643452 | 10° C | 61% | 1009.7 hPa | 0 mm | - | - | - |
* Rain latest hour (hover to see other rain measurements)
** Current wind speed in m/s (hover to see current wind gust speed)